Location: Emblem
(62.4273°N, 6.4710°E)
Time: 18:50:21
(UTC+02:00)

A-11 Canister half - Pass Details

Date: 26 May 2024
Orbit: 1515 x 1684 km, 47.2° (Epoch: 09 October)

Event Time Altitude Azimuth Distance (km) Brightness Sun altitude
Exits shadow 01:41:23 - 170° (S) 4,108 10.6 -6.4°
Reaches altitude 10° 01:43:37 10° 159° (SSE) 3,754 10.5 -6.4°
Maximum altitude 01:47:25 13° 134° (SE) 3,487 10.5 -6.3°
Drops below altitude 10° 01:51:11 10° 110° (ESE) 3,714 10.9 -6.3°
Sets 01:56:25 0° 86° (E) 4,678 11.7 -6.2°
